Content
SEND FEEDBACK

Daily
Averages
Monthly
Summary
Canada

PORT-MENIER, QUEBEC


Home > North America > Canada > Quebec
Elevation: 174 feet     Latitude: 49 49N     Longitude: 064 18W

WEATHER
 
SELECT A DAY
Number of Records: 142,673;   Date Range: 1/1/95 - 9/30/14
 
SHARE

PRINT THIS DATA

[ ← Previous Day ]
WEATHER ALMANAC - FEBRUARY 16, 2014
[ Next Day → ]
[ °C ]   °F
Weather ElementAverageHighLow
Temperature10.8 °F14.9 °F (2:00 pm)8 °F (5:00 am)
Dewpoint8 °F11.7 °F (1:00 pm)4 °F (5:00 am)
Humidity87.3 %94 % (12:00 pm)72 % (2:00 am)
Barometer29.44 in29.94 in (1:00 am)29.20 in (2:00 pm)
Wind Speed16.6 mph23 mph (12:00 pm)
Wind Gust34.5 mph (12:00 pm)
Weather ElementAverage
Wind DirectionESE (108.1 °)

Weather ElementTotal
Precipitation0.72 in
Heating Degree Days53.6 (Base 65)
Averaged from 31 records on February 16, 2014
WEATHER CONDITIONS BREAKOUT
WIND DIRECTION BREAKOUT
WEATHER BY HOUR - FEBRUARY 16, 2014
[ °C ]   °F
Local TimeTemperatureDewpointHumidityBarometerVisibilityWind DirectionWind SpeedGust SpeedPrecipitationEventsConditions
1:00 AM10.9 °F5.7 °F79 %29.94 inENE (60°)12.7 mph19.6 mph
2:00 AM10.0 °F5.0 °F72 %29.91 inENE (60°)15.0 mph
2:00 AM10.4 °F5.2 °F79 %29.91 inENE (60°)15.0 mph23.0 mph
3:00 AM10.0 °F5.5 °F82 %29.84 inENE (60°)17.3 mph25.3 mph
4:00 AM9.3 °F5.5 °F85 %29.79 inNE (50°)18.4 mph27.6 mph
5:00 AM8.0 °F4.0 °F78 %29.72 inNE (50°)20.7 mph
5:00 AM8.4 °F4.5 °F84 %29.72 inNE (50°)20.7 mph31.1 mph
6:00 AM8.1 °F4.5 °F85 %29.66 inNE (50°)21.9 mph32.2 mph0.01 in
7:00 AM9.5 °F5.0 °F82 %29.58 inNE (40°)20.7 mph33.4 mph0.02 in
8:00 AM9.0 °F6.0 °F82 %29.51 inNE (40°)19.6 mph
8:00 AM8.6 °F6.1 °F89 %29.51 inNE (40°)19.6 mph32.2 mph0.04 in
9:00 AM9.9 °F7.9 °F92 %29.47 inNE (40°)16.1 mph26.5 mph0.04 in
10:00 AM10.8 °F9.0 °F92 %29.39 inNNE (30°)18.4 mph29.9 mph0.07 in
11:00 AM12.0 °F10.0 °F90 %29.31 inNNE (30°)18.4 mph
11:00 AM12.0 °F10.4 °F93 %29.31 inNNE (30°)18.4 mph31.1 mph0.12 in
12:00 PM12.9 °F11.5 °F94 %29.24 inNNE (30°)23.0 mph34.5 mph0.11 in
1:00 PM13.5 °F11.7 °F93 %29.21 inNE (40°)18.4 mph31.1 mph0.02 in
2:00 PM13.0 °F11.0 °F89 %29.20 inNNE (20°)19.6 mph
2:00 PM14.9 °F11.3 °F86 %29.20 inNNE (20°)19.6 mph31.1 mph0.02 in
3:00 PM12.4 °F10.4 °F92 %29.21 inNNE (20°)17.3 mph28.8 mph0.02 in
4:00 PM11.5 °F9.9 °F93 %29.22 inNorth (10°)13.8 mph23.0 mph0.03 in
5:00 PM11.0 °F9.0 °F85 %29.24 inNorth (10°)15.0 mph
5:00 PM10.6 °F8.6 °F92 %29.24 inNorth (10°)15.0 mph24.2 mph0.04 in
6:00 PM10.2 °F8.2 °F92 %29.26 inNorth (360°)15.0 mph25.3 mph0.03 in
7:00 PM11.3 °F7.3 °F84 %29.28 inNorth (360°)13.8 mph21.9 mph0.03 in
8:00 PM10.0 °F8.0 °F87 %29.29 inNorth13.8 mph
8:00 PM10.0 °F7.9 °F91 %29.29 inNorth (360°)13.8 mph23.0 mph0.02 in
9:00 PM10.8 °F9.0 °F92 %29.30 inNorth (360°)10.4 mph18.4 mph0.03 in
10:00 PM11.8 °F9.9 °F92 %29.31 inNorth (360°)11.5 mph19.6 mph0.03 in
11:00 PM12.0 °F10.0 °F87 %29.33 inNorth (350°)10.4 mph
11:00 PM11.8 °F9.9 °F92 %29.33 inNorth (350°)10.4 mph20.7 mph0.04 in
Hourly data recorded from CWBY, located miles away from Port-Menier, Quebec







STORIES FROM OUR PARTNERS